Tracking 31027 objects as of 19-Jul-2025
HD Live streaming from Space Station
objects crossing your sky now

COSMOS 2251 DEB

Track COSMOS 2251 DEB now!
10-day predictions


NORAD ID: 34997
Int'l Code: 1993-036AFV
Perigee: 683.0 km
Apogee: 823.1 km
Inclination: 73.9 °
Period: 99.7 minutes
Semi major axis: 7124 km
RCS: 0.0096 m2 (small)
Launch date: June 16, 1993
Source: Commonwealth of Independent States (former USSR) (CIS)
Launch site: PLESETSK MISSILE AND SPACE COMPLEX (PKMTR)

Note: This is SATELLITE DEBRIS
Your satellite tracking list
NSIGHT-1
Track 1 satellite(s)




NASA's NSSDC Master Catalog

Two Line Element Set (TLE):
1 34997U 93036AFV 25199.39499558  .00002236  00000-0  62730-3 0  9995
2 34997  73.8800 228.1142 0098365 235.6606 123.5215 14.43815446686198
Source of the keplerian elements: AFSPC